Lander, WY

1:55 PM MST on December 17, 2017 (GMT -0700)
Hunt

Weather History for KLND - October, 2013

Change the Weather History Date:

Sunday, October 27, 2013

  Actual Average Record
Temperature  
Mean Temperature 51 °F 41 °F  
Max Temperature 65 °F 54 °F 75 °F (2016)
Min Temperature 37 °F 29 °F 6 °F (1919)
Degree Days  
Heating Degree Days 14 24  
Month to date heating degree days 616 503  
Since 1 July heating degree days 808 762  
Cooling Degree Days 0 0  
Month to date cooling degree days 0 0  
Year to date cooling degree days 743 472  
Moisture  
Dew Point 23 °F    
Average Humidity 38    
Maximum Humidity 59    
Minimum Humidity 16    
Precipitation  
Precipitation 0.00 in 0.03 in 0.71 in (1912)
Month to date precipitation 2.28 1.14  
Year to date precipitation 13.92 11.07  
Snow  
Snow 0.00 in 0.40 in - ()
Month to date snowfall 14.9 8.3  
Since 1 July snowfall 19.0 11.0  
Since 1 September snowfall 19.0 11.0  
Snow Depth 0.00 in    
Sea Level Pressure  
Sea Level Pressure 29.83 in    
Wind  
Wind Speed 6 mph (West)    
Max Wind Speed 17 mph    
Max Gust Speed 22 mph    
Visibility 10 miles    
Events      
T = Trace of Precipitation, MM = Missing Value Source: NWS Daily Summary

Daily Weather History Graph

Daily Weather History Graph

Search for Another Location

Airport or City:

Trip Planner

Search our weather history database for the weather conditions in past years. The results will help you decide how hot, cold, wet, or windy it might be!

Date:

Astronomy

Oct. 27, 2013 Rise Set
Actual Time 7:43 AM MDT 6:13 PM MDT
Civil Twilight 7:14 AM MDT 6:42 PM MDT
Nautical Twilight 6:40 AM MDT 7:15 PM MDT
Astronomical Twilight 6:08 AM MDT 7:48 PM MDT
Moon 12:34 AM MDT (10/27) 2:33 PM MDT (10/27)
Length of Visible Light 11h 28m
Length of Day
10h 30m
Last Quarter, 43% of the Moon is Illuminated
Oct 27
Last Quarter
Nov 3
New
Nov 9
First Quarter
Nov 17
Full
Nov 25
Last Quarter

Hourly Weather History & Observations

Time (MDT) Temp. Windchill Dew Point Humidity Pressure Visibility Wind Dir Wind Speed Gust Speed Precip Events Conditions
12:53 AM 43.0 °F - 24.1 °F 47% 30.03 in 10.0 mi Calm Calm - N/A   Clear
1:53 AM 41.0 °F - 24.1 °F 51% 30.01 in 10.0 mi Calm Calm - N/A   Clear
2:53 AM 42.1 °F - 23.0 °F 47% 29.98 in 10.0 mi Calm Calm - N/A   Clear
3:53 AM 37.0 °F 33.3 °F 23.0 °F 57% 29.98 in 10.0 mi WNW 4.6 mph - N/A   Clear
4:53 AM 41.0 °F 38.0 °F 21.0 °F 45% 29.93 in 10.0 mi NW 4.6 mph - N/A   Clear
5:53 AM 39.0 °F 36.8 °F 21.0 °F 49% 29.95 in 10.0 mi WSW 3.5 mph - N/A   Clear
6:53 AM 43.0 °F 37.7 °F 19.9 °F 40% 29.92 in 10.0 mi WSW 9.2 mph - N/A   Clear
7:53 AM 37.9 °F 34.4 °F 21.9 °F 53% 29.93 in 10.0 mi SSW 4.6 mph - N/A   Clear
8:53 AM 39.9 °F - 27.0 °F 60% 29.94 in 10.0 mi Calm Calm - N/A   Clear
9:53 AM 51.1 °F - 28.9 °F 43% 29.88 in 10.0 mi Calm Calm - N/A   Clear
10:53 AM 55.9 °F - 34.0 °F 44% 29.83 in 10.0 mi East 5.8 mph - N/A   Clear
11:53 AM 62.1 °F - 25.0 °F 24% 29.78 in 10.0 mi East 10.4 mph - N/A   Clear
12:53 PM 63.0 °F - 23.0 °F 22% 29.73 in 10.0 mi Variable 3.5 mph - N/A   Clear
1:53 PM 64.0 °F - 21.9 °F 20% 29.70 in 10.0 mi North 9.2 mph - N/A   Clear
2:53 PM 64.9 °F - 21.0 °F 19% 29.68 in 10.0 mi Variable 4.6 mph - N/A   Clear
3:53 PM 64.0 °F - 17.1 °F 16% 29.70 in 10.0 mi West 9.2 mph - N/A   Partly Cloudy
4:53 PM 63.0 °F - 19.0 °F 18% 29.68 in 10.0 mi Calm Calm - N/A   Clear
5:53 PM 60.1 °F - 19.0 °F 20% 29.69 in 10.0 mi Calm Calm - N/A   Partly Cloudy
6:53 PM 50.0 °F - 24.1 °F 36% 29.73 in 10.0 mi WSW 9.2 mph - N/A   Scattered Clouds
7:53 PM 48.9 °F - 21.0 °F 33% 29.76 in 10.0 mi WSW 10.4 mph - N/A   Clear
8:53 PM 46.9 °F - 21.9 °F 37% 29.78 in 10.0 mi West 10.4 mph - N/A   Clear
9:53 PM 46.0 °F 41.0 °F 26.1 °F 46% 29.76 in 10.0 mi WNW 10.4 mph - N/A   Scattered Clouds
10:53 PM 46.0 °F 40.6 °F 28.0 °F 50% 29.76 in 10.0 mi WNW 11.5 mph - N/A   Mostly Cloudy
11:53 PM 46.0 °F 39.9 °F 28.0 °F 50% 29.77 in 10.0 mi NW 13.8 mph 20.7 mph N/A   Partly Cloudy